{"data":{"norad_id":60266,"epoch":"2026-09-21T07:18:06.616800Z","epoch_age_seconds":112750,"freshness":"FRESH","line1":"1 60266U 24131M   26264.30424325  .00000248  00000+0  19775-4 0  9990","line2":"2 60266  53.1604 222.7311 0001557  81.4169 278.7009 15.31702663121681","mean_motion":15.31702663,"eccentricity":0.0001557,"inclination_deg":53.1604,"raan_deg":222.7311,"arg_perigee_deg":81.4169,"mean_anomaly_deg":278.7009,"bstar":1.9775e-5,"rev_number":12168,"period_min":94.013024510881,"perigee_km":469.66568806055,"apogee_km":471.79842588489,"semimajor_km":6848.8690569727,"source":"CELESTRAK","updated_at":"2026-09-22T09:00:49.188344Z"}}